{"data":{"norad_id":65668,"epoch":"2026-05-25T02:35:16.831680Z","epoch_age_seconds":72551,"freshness":"FRESH","line1":"1 65668U 25211S   26145.10783370  .00003506  00000+0  24684-3 0  9999","line2":"2 65668  97.4492 189.0720 0002674 119.7355 240.4139 15.05659143 38547","mean_motion":15.05659143,"eccentricity":0.0002674,"inclination_deg":97.4492,"raan_deg":189.072,"arg_perigee_deg":119.7355,"mean_anomaly_deg":240.4139,"bstar":0.00024684,"rev_number":3854,"period_min":95.639176150508,"perigee_km":547.63066331785,"apogee_km":551.33555455211,"semimajor_km":6927.620108935,"source":"CELESTRAK","updated_at":"2026-05-25T13:38:20.891298Z"}}